SCP
0 0 0 -0 0 0 -0 0 0 0 0 0 0 0 0 0 0 0 0 -0 -0 -0 -0 -0 -0 -0 -0 -0 -0 -0 -0 -0 -0 -0 -0 -0 0 0 0 0 0 0 0 0 0 0 0 0 0
-0 0 0 0 -0 0 0 0 0 0 0 0 0 0 0 0 0 0 0 0 -0 -0 -0 -0 -0 -0 -0 -1 -1 -0 -0 -0 -0 -0 -0 -0 -0 0 0 0 0 0 0 0 0 0 0 0 0
-0 0 0 0 0 0 0 0 0 0 0 0 0 0 0 0 0 0 0 -0 0 -0 -0 -0 -0 -0 -0 -0 -0 -0 -0 -0 -0 -0 -0 -0 -0 0 0 0 0 0 0 0 0 0 0 0 0
0 0 -0 0 0 0 0 0 0 0 0 0 0 0 0 0 0 0 0 0 -0 0 -0 -0 -0 -0 -0 -0 -0 -0 -0 -0 -0 -0 -0 -0 -0 0 0 0 0 0 0 0 0 0 0 0 0
-0 0 0 0 0 0 0 0 0 0 0 0 0 0 0 0 0 0 0 0 -0 0 0 -0 -0 -0 -0 -0 -0 -0 0 -0 -0 -0 -0 -0 -0 0 0 0 0 0 0 0 0 0 0 0 0
0 0 0 0 0 0 0 0 0 0 0 0 0 0 0 0 0 0 0 0 0 0 0 -0 -0 -0 -0 -0 -0 -0 0 0 0 0 0 -0 -0 0 0 0 0 0 0 0 0 0 0 0 0
0 0 0 0 0 0 0 0 0 0 0 0 0 0 0 0 0 0 0 0 0 0 0 0 0 -0 -0 -0 -0 -0 -0 0 0 0 0 0 0 0 0 0 0 0 0 0 0 0 0 0 0
0 0 0 0 0 0 0 0 0 0 0 0 0 0 0 0 0 0 0 0 0 0 0 0 0 0 0 0 -0 -0 -0 0 0 0 0 0 0 0 0 0 0 0 0 0 0 0 0 0 0
0 0 0 0 0 0 0 0 0 0 0 0 0 0 0 0 0 0 0 0 0 0 0 0 0 0 0 0 0 0 0 0 0 0 0 0 0 0 0 0 0 0 0 0 0 0 0 0 0
0 0 0 0 0 0 0 0 0 0 0 0 0 0 0 0 0 0 0 0 0 0 0 0 0 0 0 0 0 0 0 0 0 0 0 0 0 0 0 0 0 0 0 0 0 0 0 0 0
0 0 0 0 0 0 0 0 0 0 0 0 0 0 0 0 0 0 0 0 0 0 0 0 0 0 0 0 0 0 0 0 0 0 0 0 0 0 0 0 0 0 0 0 0 0 0 0 0
0 0 0 0 0 0 0 0 0 0 0 0 0 0 0 0 0 0 0 0 0 0 0 0 0 0 0 0 0 0 0 0 0 0 0 0 0 0 0 0 0 0 0 0 0 0 0 0 0
0 0 0 0 0 0 0 0 0 0 0 0 0 0 0 0 0 0 0 0 0 0 0 0 0 0 0 0 0 0 0 0 0 0 0 0 0 0 0 0 0 0 0 0 0 0 0 0 0
0 0 0 0 0 0 0 0 0 0 0 0 0 0 0 0 0 0 0 0 0 0 0 0 0 0 0 0 0 0 0 0 0 0 0 0 0 0 0 0 0 0 0 0 0 0 0 0 0
0 0 0 0 0 0 0 0 0 0 0 0 0 0 0 0 0 0 0 0 0 0 0 0 0 0 0 0 0 0 0 0 0 0 0 0 0 0 0 0 0 0 0 0 0 0 0 0 0
0 0 0 0 0 0 0 0 0 0 0 0 0 0 0 0 0 0 0 0 0 0 0 0 0 0 0 0 0 0 0 0 0 0 0 0 0 0 0 0 0 0 0 0 0 0 0 0 0
0 0 0 0 0 0 0 0 0 0 0 0 0 0 0 0 0 0 0 0 0 0 0 0 0 0 0 0 0 0 0 0 0 0 0 0 0 0 0 0 0 0 0 0 0 0 0 0 0
0 0 0 0 0 0 0 0 0 0 0 0 0 0 0 0 0 0 0 0 0 0 0 0 0 0 0 0 0 0 0 0 0 0 0 0 0 0 0 0 0 0 0 0 0 0 0 0 0
0 0 0 0 0 0 0 0 0 0 0 0 0 0 0 0 0 0 0 0 0 0 0 0 0 0 0 0 0 0 0 0 0 0 0 0 0 0 0 0 0 0 0 0 0 0 0 0 0
0 0 0 0 0 0 0 0 0 0 0 0 0 0 0 0 0 0 0 0 0 0 0 0 0 0 0 0 0 0 0 0 0 0 0 0 0 0 0 0 0 0 0 0 0 0 0 0 0
0 0 0 0 0 0 0 0 0 0 0 0 0 0 0 0 0 0 0 0 0 0 0 0 0 0 0 0 0 0 0 0 0 0 0 0 0 0 0 0 0 0 0 0 0 0 0 0 0
0 0 0 0 0 0 0 0 0 0 0 0 0 0 0 0 0 0 0 0 0 0 0 0 0 0 0 0 0 0 0 0 0 0 0 0 0 0 0 0 0 0 0 0 0 0 0 0 0
0 0 0 0 0 0 0 0 0 0 0 0 0 0 0 0 0 0 0 0 0 0 0 0 0 0 0 0 0 0 0 -0 0 0 0 0 0 0 0 0 0 0 0 0 0 0 0 0 0
0 0 0 0 0 0 0 0 0 0 0 0 0 0 0 0 0 0 0 0 0 0 0 0 0 0 0 0 0 0 0 0 0 0 0 0 0 0 0 0 0 0 0 0 0 0 0 0 0
0 0 0 0 0 0 0 0 0 0 0 0 0 0 0 0 0 0 0 0 0 0 0 0 0 0 -0 -0 -0 -0 -0 -0 -0 -0 -0 0 0 0 0 0 0 0 0 0 0 0 0 0 0
0 0 0 0 0 0 0 0 0 0 0 0 0 0 0 0 0 0 0 0 0 0 -0 -0 -0 -0 -0 -0 -0 -0 -0 -0 0 0 0 0 0 0 0 0 0 0 0 0 0 0 0 0 0
0 0 0 0 0 0 0 0 0 0 0 0 0 0 0 0 0 0 0 0 -0 -0 -0 -0 -0 -0 0 0 0 0 0 0 0 0 0 0 0 0 0 0 0 0 0 0 0 0 0 0 0
0 0 0 0 0 0 0 0 0 0 0 0 0 0 0 0 0 0 0 0 0 0 -0 -0 0 0 0 0 0 0 0 0 0 0 0 0 0 0 0 0 0 0 0 0 0 0 0 0 0
0 0 0 0 0 0 0 0 0 0 0 0 0 0 0 0 0 0 0 0 -0 -0 -0 -0 -0 -0 -0 -0 -0 -0 -0 -0 -0 0 0 0 0 0 0 0 0 0 0 0 0 0 0 0 0
0 0 0 0 0 0 0 0 0 0 0 0 0 0 0 0 0 0 0 -0 -0 -0 -0 -0 -0 -0 -0 -0 -0 -0 -0 -0 -0 -0 -0 -0 -0 0 0 0 0 0 0 0 0 0 0 0 0
Wind_Speed_500mb
12 11 9 2 8 10 5 6 1 4 2 3 3 3 4 4 6 7 5 5 6 18 27 39 39 38 37 34 32 31 30 27 26 25 21 18 17 18 16 13 12 10 7 4 1 2 3 3 1
8 6 4 6 10 7 8 9 2 5 8 4 3 3 1 2 4 3 7 4 6 12 23 37 39 39 38 36 34 32 30 28 28 27 23 19 18 17 17 15 14 11 10 8 6 4 6 6 4
5 5 4 8 7 7 7 6 6 4 5 1 2 4 3 4 5 2 4 6 7 13 16 32 40 40 38 37 37 35 32 31 29 29 25 22 25 19 19 16 15 12 8 8 7 7 8 8 7
1 3 8 8 3 8 8 8 6 4 2 1 2 3 3 7 4 2 5 6 9 14 16 25 40 41 40 39 37 35 35 31 29 25 23 27 23 14 19 19 18 17 12 11 10 10 9 9 9
8 6 8 5 8 9 4 8 9 3 2 3 2 3 7 9 9 2 2 4 8 15 18 20 35 41 42 42 40 38 35 27 28 26 29 31 29 23 18 19 20 20 14 13 12 11 9 7 6
5 5 9 2 8 10 6 1 7 4 7 4 3 8 4 6 10 6 3 3 4 11 17 22 26 38 42 42 42 40 38 33 30 35 35 34 30 24 14 18 19 19 16 15 13 11 10 8 8
8 7 5 6 6 10 5 1 6 2 3 4 3 5 8 9 13 10 6 4 7 12 17 22 26 31 40 42 42 42 41 38 34 37 35 34 33 31 21 20 22 20 19 18 13 12 12 11 11
4 8 1 5 6 6 13 14 7 8 6 4 3 6 8 18 15 18 16 13 16 19 20 22 26 30 35 42 43 43 42 41 40 39 37 37 35 32 23 19 23 22 22 19 15 14 13 15 14
2 8 3 7 3 10 20 11 9 15 18 15 16 22 28 34 28 29 26 24 23 24 26 26 28 30 34 38 43 44 44 43 41 41 40 41 40 35 28 21 23 25 24 22 18 17 18 19 18
7 7 13 10 6 7 10 6 18 8 28 31 29 33 29 25 29 30 36 36 35 29 30 32 33 32 34 38 45 48 47 46 45 45 44 45 44 39 34 30 26 28 28 25 22 21 22 23 22
10 10 9 11 13 11 10 16 5 3 12 56 55 39 32 41 35 33 35 44 48 37 30 32 35 34 35 38 42 49 51 51 50 49 48 48 47 45 40 36 33 31 32 30 28 26 26 28 26
5 21 24 17 24 13 6 18 12 23 48 46 45 41 34 42 43 45 46 43 43 39 35 30 28 31 31 34 38 45 50 52 54 54 51 51 52 49 45 42 39 38 35 33 32 29 31 33 32
9 10 19 21 30 33 31 31 21 44 42 31 29 21 20 24 26 29 35 35 36 38 33 34 28 28 27 28 31 39 43 48 51 54 55 53 53 51 48 47 46 43 41 38 36 34 36 38 37
3 9 22 27 50 36 17 12 3 21 18 25 22 23 26 27 24 31 40 42 39 39 36 34 33 29 31 27 24 27 34 36 38 42 43 48 50 50 49 50 49 46 43 40 40 39 39 41 43
7 11 15 29 17 9 5 2 13 21 28 32 29 27 23 20 16 13 10 17 29 39 39 30 30 24 31 30 24 21 25 31 35 36 36 39 43 44 46 47 47 45 44 44 45 46 46 47 48
5 3 6 7 7 3 8 15 15 23 30 40 30 16 8 11 13 16 16 5 6 18 27 25 21 14 22 29 25 23 24 27 31 34 35 36 37 38 41 44 45 42 44 47 49 49 49 47 49
6 6 9 16 8 5 4 12 27 41 40 42 9 21 23 23 22 22 21 19 13 10 15 22 21 20 23 29 29 27 25 24 27 30 31 32 33 37 40 43 36 37 43 48 49 50 50 51 51
10 8 9 9 6 4 11 19 20 54 45 7 18 27 33 34 33 25 20 17 18 17 18 19 17 19 21 22 22 20 19 20 17 22 25 27 31 34 35 36 39 41 44 47 50 51 52 55 55
5 8 12 11 13 5 11 10 31 34 28 31 37 43 44 45 38 35 34 29 24 23 20 18 12 10 10 15 18 14 13 11 14 16 17 21 23 26 31 34 38 41 45 45 45 49 52 56 56
12 13 13 11 11 5 13 21 13 25 23 35 44 45 46 46 44 48 51 52 51 47 42 34 31 26 22 15 13 12 9 8 11 15 17 20 24 26 26 29 33 37 41 43 46 48 53 53 55
9 11 9 15 6 7 3 15 6 9 32 40 40 43 46 48 50 50 53 57 57 60 57 51 45 41 37 30 22 18 14 12 6 2 4 9 12 16 19 18 21 28 35 41 44 48 52 54 51
12 7 14 6 4 7 5 8 7 6 12 21 30 40 46 48 47 49 50 52 54 54 48 46 43 42 40 33 29 25 23 22 23 21 19 19 19 19 21 23 22 20 26 35 39 41 45 50 56
14 5 6 3 4 3 6 3 11 13 5 9 19 34 39 42 42 45 47 46 46 44 43 40 36 35 34 32 29 27 25 24 21 18 18 18 20 23 22 25 28 30 31 33 34 38 43 47 51
8 6 11 9 6 4 13 13 8 10 12 15 23 31 35 37 38 39 39 38 39 36 34 30 27 26 23 22 21 20 19 19 20 21 22 23 25 25 26 26 30 34 37 39 42 41 41 46 51
8 10 5 6 3 11 5 5 6 19 2 31 32 36 32 31 32 30 28 28 29 29 29 25 23 21 22 24 24 26 27 28 29 30 31 31 31 31 29 29 29 32 37 41 46 49 51 49 52
10 14 9 11 6 7 8 11 4 5 26 49 44 36 30 25 22 20 19 20 22 24 25 24 24 23 22 23 26 27 28 30 31 33 36 38 39 43 45 43 40 38 36 35 39 45 51 57 62
8 7 3 8 5 6 8 2 4 9 12 31 39 33 27 21 14 9 9 12 16 21 21 20 18 19 20 21 22 25 28 30 33 33 35 41 41 42 44 47 49 47 46 45 45 44 44 50 57
8 10 6 5 2 7 9 11 8 17 20 15 20 30 26 19 12 5 2 5 8 7 7 9 10 12 15 19 21 22 25 28 32 36 40 44 47 50 53 58 59 57 55 54 54 53 50 51 51
4 4 4 6 10 9 4 11 7 23 25 24 31 37 31 22 17 12 6 4 7 6 9 13 19 23 29 33 34 35 35 35 34 35 39 44 47 51 55 59 62 63 65 65 65 63 62 62 60
1 11 12 9 11 6 5 15 8 19 34 39 39 40 32 24 20 15 6 5 7 7 11 20 28 30 34 41 45 47 51 52 53 55 58 60 59 56 56 59 63 65 68 71 75 79 78 76 73
Wind_Direction_500mb
337 313 320 62 57 64 306 288 240 92 33 174 225 175 195 220 168 211 178 212 171 166 178 188 192 195 198 198 194 190 187 186 187 189 194 196 204 205 209 214 223 231 240 229 254 350 340 331 334
339 343 58 77 82 66 286 269 171 216 194 178 222 192 259 256 219 218 168 196 188 173 188 192 197 198 200 200 199 196 194 194 196 200 205 212 211 199 210 208 219 230 206 224 254 287 300 301 284
354 21 61 90 110 162 188 229 220 250 189 138 148 236 288 207 194 225 248 206 208 198 190 199 201 203 205 204 204 204 204 206 206 204 211 212 225 207 217 228 241 258 251 244 261 281 298 298 289
287 40 60 80 208 253 199 202 217 155 218 87 95 326 260 225 252 259 273 260 216 217 207 201 205 207 208 209 210 210 210 208 200 206 216 210 234 228 220 228 244 257 265 267 275 287 289 291 274
24 51 50 33 283 277 255 155 102 31 308 248 198 274 277 237 237 182 257 282 235 223 216 210 208 211 213 212 213 215 220 215 200 202 207 229 247 254 234 239 246 255 258 268 283 287 287 279 246
60 59 55 322 280 287 302 274 101 41 7 26 305 298 298 254 209 197 167 248 238 229 223 221 215 217 218 218 219 219 220 218 207 206 215 234 248 259 253 247 243 251 261 269 275 275 275 251 230
93 77 199 223 258 311 253 120 102 152 341 76 270 300 293 282 250 237 227 250 259 246 234 228 225 221 222 223 222 222 222 222 215 218 225 235 242 256 263 258 248 254 263 269 266 265 253 228 216
67 92 314 267 294 291 349 343 357 337 309 137 245 263 292 333 294 265 250 266 274 257 250 241 233 230 226 224 224 225 224 224 224 226 224 230 238 253 267 284 261 260 265 267 262 258 240 227 226
149 62 234 244 9 287 330 4 359 326 299 296 269 268 294 300 301 272 267 272 273 274 258 249 242 237 234 232 228 226 225 225 226 231 229 234 240 250 261 279 269 262 261 260 256 249 234 230 230
115 124 225 210 185 264 289 259 308 311 306 299 286 296 291 293 313 296 274 283 281 272 281 266 252 244 237 234 230 228 228 226 225 230 234 237 245 252 259 268 278 271 269 266 262 256 242 238 239
175 194 225 253 256 293 283 291 263 262 287 291 294 304 291 296 295 287 283 281 284 280 269 275 259 252 246 239 231 229 230 230 229 231 238 242 247 252 258 266 273 276 270 265 257 253 246 245 246
176 246 241 269 281 294 263 293 292 269 278 306 308 301 291 293 292 290 288 293 285 281 280 267 263 254 254 251 240 235 233 232 234 237 238 240 246 251 258 266 274 276 272 264 259 255 247 246 247
216 260 254 263 277 279 279 263 264 274 290 302 317 302 318 337 329 311 304 295 280 271 274 258 255 254 252 254 252 242 236 236 239 242 241 240 246 252 259 266 271 272 269 263 260 256 252 250 249
236 278 283 289 280 279 259 286 166 275 294 293 322 353 349 351 336 306 288 278 270 263 264 260 251 259 250 254 262 260 250 246 244 246 250 248 252 260 269 270 272 273 269 265 263 261 257 254 253
302 323 316 272 273 222 188 253 231 288 301 284 292 357 352 345 326 326 325 293 267 260 255 248 245 256 249 251 260 270 263 250 247 249 259 259 263 265 272 279 280 280 275 268 264 260 254 250 250
312 25 324 285 186 127 136 270 268 298 294 285 321 15 46 78 72 73 73 68 275 254 235 226 212 216 235 241 250 257 262 242 245 253 261 263 268 266 279 284 286 286 281 277 275 269 265 261 257
353 238 221 312 303 121 133 256 273 292 288 292 38 108 108 100 84 72 69 73 78 105 165 183 189 179 204 224 230 234 239 237 248 252 255 261 267 271 277 283 288 288 284 280 279 275 272 270 268
213 224 244 237 268 97 245 247 277 280 292 268 134 120 105 91 73 69 72 80 91 111 136 157 158 157 176 202 218 227 232 233 243 257 261 263 266 272 278 278 275 277 280 285 284 282 279 276 275
194 219 229 253 262 281 262 283 271 328 299 129 114 109 99 91 87 86 86 92 103 111 122 124 142 138 168 184 193 202 220 216 229 239 251 263 274 277 278 275 274 276 278 284 287 285 281 279 278
229 241 251 272 254 222 282 287 57 19 17 116 115 109 105 101 94 86 83 83 82 82 83 86 89 92 91 97 111 134 155 200 235 244 254 262 266 264 268 278 278 278 279 276 276 275 280 279 277
216 210 220 232 312 275 340 292 91 61 74 84 95 110 105 99 93 88 84 81 81 76 73 73 74 77 76 73 78 83 91 90 84 40 317 293 288 276 272 274 285 285 284 284 285 282 277 282 280
275 208 233 227 105 232 62 275 309 134 87 76 94 103 104 101 95 89 83 77 72 72 71 67 66 67 67 65 59 53 47 38 33 18 0 338 322 300 288 280 278 278 286 289 287 282 280 280 278
221 161 165 176 191 32 296 126 272 124 127 124 103 107 102 96 90 84 80 76 70 63 56 51 43 39 35 30 30 29 27 26 20 11 6 2 348 329 314 299 290 283 279 280 287 287 280 276 274
135 63 45 48 88 307 227 174 253 188 199 145 130 121 112 105 97 88 80 73 64 58 51 45 37 35 28 17 9 359 352 346 337 336 335 339 339 337 333 327 312 302 294 288 283 279 281 282 278
95 77 313 343 5 231 124 133 281 323 101 146 141 134 123 114 105 92 76 62 51 44 41 34 29 27 24 17 12 9 3 357 352 348 345 341 338 336 332 326 318 314 312 307 297 287 282 279 281
178 159 165 220 214 259 288 238 233 56 102 132 139 135 132 128 115 97 71 51 43 34 26 27 27 26 24 17 12 8 2 357 355 351 349 344 340 337 334 332 330 326 319 311 305 302 293 285 279
168 165 180 97 51 53 244 31 138 117 107 133 146 153 154 144 126 93 55 27 17 11 13 20 24 23 15 11 4 356 350 345 341 339 334 330 330 325 324 323 321 322 321 318 314 310 302 293 286
142 160 74 8 273 280 284 275 215 186 180 177 168 169 169 171 175 194 286 353 356 11 30 34 35 28 14 2 353 341 331 325 322 321 319 316 315 316 314 313 313 313 314 316 315 312 308 302 296
126 181 132 149 147 179 258 258 287 184 174 182 187 191 191 197 208 216 234 310 359 13 24 15 10 6 3 359 355 350 342 338 333 326 321 315 312 311 309 307 306 306 307 308 308 308 307 303 301
184 179 161 168 233 234 168 264 340 155 171 176 194 206 210 213 208 201 232 316 326 318 343 351 346 342 342 342 339 337 337 336 333 330 328 326 322 315 309 304 301 303 303 303 302 301 301 301 300
Wind_Speed_850mb
12 11 9 2 8 10 5 6 1 4 2 3 3 3 4 4 6 7 5 5 6 18 27 39 39 38 37 34 32 31 30 27 26 25 21 18 17 18 16 13 12 10 7 4 1 2 3 3 1
8 6 4 6 10 7 8 9 2 5 8 4 3 3 1 2 4 3 7 4 6 12 23 37 39 39 38 36 34 32 30 28 28 27 23 19 18 17 17 15 14 11 10 8 6 4 6 6 4
5 5 4 8 7 7 7 6 6 4 5 1 2 4 3 4 5 2 4 6 7 13 16 32 40 40 38 37 37 35 32 31 29 29 25 22 25 19 19 16 15 12 8 8 7 7 8 8 7
1 3 8 8 3 8 8 8 6 4 2 1 2 3 3 7 4 2 5 6 9 14 16 25 40 41 40 39 37 35 35 31 29 25 23 27 23 14 19 19 18 17 12 11 10 10 9 9 9
8 6 8 5 8 9 4 8 9 3 2 3 2 3 7 9 9 2 2 4 8 15 18 20 35 41 42 42 40 38 35 27 28 26 29 31 29 23 18 19 20 20 14 13 12 11 9 7 6
5 5 9 2 8 10 6 1 7 4 7 4 3 8 4 6 10 6 3 3 4 11 17 22 26 38 42 42 42 40 38 33 30 35 35 34 30 24 14 18 19 19 16 15 13 11 10 8 8
8 7 5 6 6 10 5 1 6 2 3 4 3 5 8 9 13 10 6 4 7 12 17 22 26 31 40 42 42 42 41 38 34 37 35 34 33 31 21 20 22 20 19 18 13 12 12 11 11
4 8 1 5 6 6 13 14 7 8 6 4 3 6 8 18 15 18 16 13 16 19 20 22 26 30 35 42 43 43 42 41 40 39 37 37 35 32 23 19 23 22 22 19 15 14 13 15 14
2 8 3 7 3 10 20 11 9 15 18 15 16 22 28 34 28 29 26 24 23 24 26 26 28 30 34 38 43 44 44 43 41 41 40 41 40 35 28 21 23 25 24 22 18 17 18 19 18
7 7 13 10 6 7 10 6 18 8 28 31 29 33 29 25 29 30 36 36 35 29 30 32 33 32 34 38 45 48 47 46 45 45 44 45 44 39 34 30 26 28 28 25 22 21 22 23 22
10 10 9 11 13 11 10 16 5 3 12 56 55 39 32 41 35 33 35 44 48 37 30 32 35 34 35 38 42 49 51 51 50 49 48 48 47 45 40 36 33 31 32 30 28 26 26 28 26
5 21 24 17 24 13 6 18 12 23 48 46 45 41 34 42 43 45 46 43 43 39 35 30 28 31 31 34 38 45 50 52 54 54 51 51 52 49 45 42 39 38 35 33 32 29 31 33 32
9 10 19 21 30 33 31 31 21 44 42 31 29 21 20 24 26 29 35 35 36 38 33 34 28 28 27 28 31 39 43 48 51 54 55 53 53 51 48 47 46 43 41 38 36 34 36 38 37
3 9 22 27 50 36 17 12 3 21 18 25 22 23 26 27 24 31 40 42 39 39 36 34 33 29 31 27 24 27 34 36 38 42 43 48 50 50 49 50 49 46 43 40 40 39 39 41 43
7 11 15 29 17 9 5 2 13 21 28 32 29 27 23 20 16 13 10 17 29 39 39 30 30 24 31 30 24 21 25 31 35 36 36 39 43 44 46 47 47 45 44 44 45 46 46 47 48
5 3 6 7 7 3 8 15 15 23 30 40 30 16 8 11 13 16 16 5 6 18 27 25 21 14 22 29 25 23 24 27 31 34 35 36 37 38 41 44 45 42 44 47 49 49 49 47 49
6 6 9 16 8 5 4 12 27 41 40 42 9 21 23 23 22 22 21 19 13 10 15 22 21 20 23 29 29 27 25 24 27 30 31 32 33 37 40 43 36 37 43 48 49 50 50 51 51
10 8 9 9 6 4 11 19 20 54 45 7 18 27 33 34 33 25 20 17 18 17 18 19 17 19 21 22 22 20 19 20 17 22 25 27 31 34 35 36 39 41 44 47 50 51 52 55 55
5 8 12 11 13 5 11 10 31 34 28 31 37 43 44 45 38 35 34 29 24 23 20 18 12 10 10 15 18 14 13 11 14 16 17 21 23 26 31 34 38 41 45 45 45 49 52 56 56
12 13 13 11 11 5 13 21 13 25 23 35 44 45 46 46 44 48 51 52 51 47 42 34 31 26 22 15 13 12 9 8 11 15 17 20 24 26 26 29 33 37 41 43 46 48 53 53 55
9 11 9 15 6 7 3 15 6 9 32 40 40 43 46 48 50 50 53 57 57 60 57 51 45 41 37 30 22 18 14 12 6 2 4 9 12 16 19 18 21 28 35 41 44 48 52 54 51
12 7 14 6 4 7 5 8 7 6 12 21 30 40 46 48 47 49 50 52 54 54 48 46 43 42 40 33 29 25 23 22 23 21 19 19 19 19 21 23 22 20 26 35 39 41 45 50 56
14 5 6 3 4 3 6 3 11 13 5 9 19 34 39 42 42 45 47 46 46 44 43 40 36 35 34 32 29 27 25 24 21 18 18 18 20 23 22 25 28 30 31 33 34 38 43 47 51
8 6 11 9 6 4 13 13 8 10 12 15 23 31 35 37 38 39 39 38 39 36 34 30 27 26 23 22 21 20 19 19 20 21 22 23 25 25 26 26 30 34 37 39 42 41 41 46 51
8 10 5 6 3 11 5 5 6 19 2 31 32 36 32 31 32 30 28 28 29 29 29 25 23 21 22 24 24 26 27 28 29 30 31 31 31 31 29 29 29 32 37 41 46 49 51 49 52
10 14 9 11 6 7 8 11 4 5 26 49 44 36 30 25 22 20 19 20 22 24 25 24 24 23 22 23 26 27 28 30 31 33 36 38 39 43 45 43 40 38 36 35 39 45 51 57 62
8 7 3 8 5 6 8 2 4 9 12 31 39 33 27 21 14 9 9 12 16 21 21 20 18 19 20 21 22 25 28 30 33 33 35 41 41 42 44 47 49 47 46 45 45 44 44 50 57
8 10 6 5 2 7 9 11 8 17 20 15 20 30 26 19 12 5 2 5 8 7 7 9 10 12 15 19 21 22 25 28 32 36 40 44 47 50 53 58 59 57 55 54 54 53 50 51 51
4 4 4 6 10 9 4 11 7 23 25 24 31 37 31 22 17 12 6 4 7 6 9 13 19 23 29 33 34 35 35 35 34 35 39 44 47 51 55 59 62 63 65 65 65 63 62 62 60
1 11 12 9 11 6 5 15 8 19 34 39 39 40 32 24 20 15 6 5 7 7 11 20 28 30 34 41 45 47 51 52 53 55 58 60 59 56 56 59 63 65 68 71 75 79 78 76 73
Wind_Direction_850mb
337 313 320 62 57 64 306 288 240 92 33 174 225 175 195 220 168 211 178 212 171 166 178 188 192 195 198 198 194 190 187 186 187 189 194 196 204 205 209 214 223 231 240 229 254 350 340 331 334
339 343 58 77 82 66 286 269 171 216 194 178 222 192 259 256 219 218 168 196 188 173 188 192 197 198 200 200 199 196 194 194 196 200 205 212 211 199 210 208 219 230 206 224 254 287 300 301 284
354 21 61 90 110 162 188 229 220 250 189 138 148 236 288 207 194 225 248 206 208 198 190 199 201 203 205 204 204 204 204 206 206 204 211 212 225 207 217 228 241 258 251 244 261 281 298 298 289
287 40 60 80 208 253 199 202 217 155 218 87 95 326 260 225 252 259 273 260 216 217 207 201 205 207 208 209 210 210 210 208 200 206 216 210 234 228 220 228 244 257 265 267 275 287 289 291 274
24 51 50 33 283 277 255 155 102 31 308 248 198 274 277 237 237 182 257 282 235 223 216 210 208 211 213 212 213 215 220 215 200 202 207 229 247 254 234 239 246 255 258 268 283 287 287 279 246
60 59 55 322 280 287 302 274 101 41 7 26 305 298 298 254 209 197 167 248 238 229 223 221 215 217 218 218 219 219 220 218 207 206 215 234 248 259 253 247 243 251 261 269 275 275 275 251 230
93 77 199 223 258 311 253 120 102 152 341 76 270 300 293 282 250 237 227 250 259 246 234 228 225 221 222 223 222 222 222 222 215 218 225 235 242 256 263 258 248 254 263 269 266 265 253 228 216
67 92 314 267 294 291 349 343 357 337 309 137 245 263 292 333 294 265 250 266 274 257 250 241 233 230 226 224 224 225 224 224 224 226 224 230 238 253 267 284 261 260 265 267 262 258 240 227 226
149 62 234 244 9 287 330 4 359 326 299 296 269 268 294 300 301 272 267 272 273 274 258 249 242 237 234 232 228 226 225 225 226 231 229 234 240 250 261 279 269 262 261 260 256 249 234 230 230
115 124 225 210 185 264 289 259 308 311 306 299 286 296 291 293 313 296 274 283 281 272 281 266 252 244 237 234 230 228 228 226 225 230 234 237 245 252 259 268 278 271 269 266 262 256 242 238 239
175 194 225 253 256 293 283 291 263 262 287 291 294 304 291 296 295 287 283 281 284 280 269 275 259 252 246 239 231 229 230 230 229 231 238 242 247 252 258 266 273 276 270 265 257 253 246 245 246
176 246 241 269 281 294 263 293 292 269 278 306 308 301 291 293 292 290 288 293 285 281 280 267 263 254 254 251 240 235 233 232 234 237 238 240 246 251 258 266 274 276 272 264 259 255 247 246 247
216 260 254 263 277 279 279 263 264 274 290 302 317 302 318 337 329 311 304 295 280 271 274 258 255 254 252 254 252 242 236 236 239 242 241 240 246 252 259 266 271 272 269 263 260 256 252 250 249
236 278 283 289 280 279 259 286 166 275 294 293 322 353 349 351 336 306 288 278 270 263 264 260 251 259 250 254 262 260 250 246 244 246 250 248 252 260 269 270 272 273 269 265 263 261 257 254 253
302 323 316 272 273 222 188 253 231 288 301 284 292 357 352 345 326 326 325 293 267 260 255 248 245 256 249 251 260 270 263 250 247 249 259 259 263 265 272 279 280 280 275 268 264 260 254 250 250
312 25 324 285 186 127 136 270 268 298 294 285 321 15 46 78 72 73 73 68 275 254 235 226 212 216 235 241 250 257 262 242 245 253 261 263 268 266 279 284 286 286 281 277 275 269 265 261 257
353 238 221 312 303 121 133 256 273 292 288 292 38 108 108 100 84 72 69 73 78 105 165 183 189 179 204 224 230 234 239 237 248 252 255 261 267 271 277 283 288 288 284 280 279 275 272 270 268
213 224 244 237 268 97 245 247 277 280 292 268 134 120 105 91 73 69 72 80 91 111 136 157 158 157 176 202 218 227 232 233 243 257 261 263 266 272 278 278 275 277 280 285 284 282 279 276 275
194 219 229 253 262 281 262 283 271 328 299 129 114 109 99 91 87 86 86 92 103 111 122 124 142 138 168 184 193 202 220 216 229 239 251 263 274 277 278 275 274 276 278 284 287 285 281 279 278
229 241 251 272 254 222 282 287 57 19 17 116 115 109 105 101 94 86 83 83 82 82 83 86 89 92 91 97 111 134 155 200 235 244 254 262 266 264 268 278 278 278 279 276 276 275 280 279 277
216 210 220 232 312 275 340 292 91 61 74 84 95 110 105 99 93 88 84 81 81 76 73 73 74 77 76 73 78 83 91 90 84 40 317 293 288 276 272 274 285 285 284 284 285 282 277 282 280
275 208 233 227 105 232 62 275 309 134 87 76 94 103 104 101 95 89 83 77 72 72 71 67 66 67 67 65 59 53 47 38 33 18 0 338 322 300 288 280 278 278 286 289 287 282 280 280 278
221 161 165 176 191 32 296 126 272 124 127 124 103 107 102 96 90 84 80 76 70 63 56 51 43 39 35 30 30 29 27 26 20 11 6 2 348 329 314 299 290 283 279 280 287 287 280 276 274
135 63 45 48 88 307 227 174 253 188 199 145 130 121 112 105 97 88 80 73 64 58 51 45 37 35 28 17 9 359 352 346 337 336 335 339 339 337 333 327 312 302 294 288 283 279 281 282 278
95 77 313 343 5 231 124 133 281 323 101 146 141 134 123 114 105 92 76 62 51 44 41 34 29 27 24 17 12 9 3 357 352 348 345 341 338 336 332 326 318 314 312 307 297 287 282 279 281
178 159 165 220 214 259 288 238 233 56 102 132 139 135 132 128 115 97 71 51 43 34 26 27 27 26 24 17 12 8 2 357 355 351 349 344 340 337 334 332 330 326 319 311 305 302 293 285 279
168 165 180 97 51 53 244 31 138 117 107 133 146 153 154 144 126 93 55 27 17 11 13 20 24 23 15 11 4 356 350 345 341 339 334 330 330 325 324 323 321 322 321 318 314 310 302 293 286
142 160 74 8 273 280 284 275 215 186 180 177 168 169 169 171 175 194 286 353 356 11 30 34 35 28 14 2 353 341 331 325 322 321 319 316 315 316 314 313 313 313 314 316 315 312 308 302 296
126 181 132 149 147 179 258 258 287 184 174 182 187 191 191 197 208 216 234 310 359 13 24 15 10 6 3 359 355 350 342 338 333 326 321 315 312 311 309 307 306 306 307 308 308 308 307 303 301
184 179 161 168 233 234 168 264 340 155 171 176 194 206 210 213 208 201 232 316 326 318 343 351 346 342 342 342 339 337 337 336 333 330 328 326 322 315 309 304 301 303 303 303 302 301 301 301 300